カタログに戻る

STARLINK-36827

運用中通信VLEO
NORAD 67908·PAYLOAD·🇺🇸 United States

打ち上げ Feb 22, 2026 から Vandenberg Space Force Base

Loading…

次のパス (今後24時間)

TLE

最新Source: CelesTrak SupGP

元期: Sep 15, 2026, 02:49 UTC

1 67908C 26036E   26258.11784722 -.00024821  00000+0 -89900-3 0  2587
2 67908  42.9996 255.6950 0001334 266.2461 327.6472 15.27591829    12

AllMySatでSTARLINK-36827をリアルタイム追跡

Download on the App Store